Regional Weather Roundup
Issued by NWS

Home | Current Version | Previous Version | Text Only | Print | Product List | Glossary Off
Versions: 1 2 3 4 5 6 7 8 9 10 11 12 13 14 15 16 17 18 19 20 21 22 23 24 25 26 27 28 29 30 31 32 33 34 35 36 37 38 39 40 41 42 43 44 45 46 47 48 49 50

000
ASUS45 KTFX 300119
RWRMT
MONTANA HOURLY WEATHER ROUNDUP
NATIONAL WEATHER SERVICE GREAT FALLS MT
719 PM MDT WED OCT 29 2014

NOTE: "FAIR" INDICATES FEW OR NO CLOUDS BELOW 12000 FEET WITH NO
SIGNIFICANT WEATHER AND/OR OBSTRUCTIONS TO VISIBILITY.

* THESE STATIONS ARE NOT UNDER NWS QUALITY CONTROL. THEY DO NOT
   REPORT WEATHER SUCH AS PRECIPITATION OR FOG.

MTZ001>007-043-300200-
WEST OF THE DIVIDE
CITY           SKY/WX    TMP DP  RH WIND       PRES   REMARKS
KALISPELL      CLOUDY    46  43  89 SE7       30.20R
MISSOULA       MOCLDY    48  43  83 NW6       30.22S
BUTTE          MOCLDY    45  27  49 W6        30.22S
MULLAN PASS    FOG       37  36  96 SW6       30.21R WCI  32
* ANACONDA     MOCLDY    46  28  50 SW6        N/A
* DEER LODGE   MOCLDY    45  36  71 NW8        N/A
* ESSEX        N/A       43  41  93 SE6        N/A
* HAMILTON APT PTCLDY    52  36  55 NW2        N/A
* LIBBY APT    PTCLDY    46  45  96 N/A        N/A
* LINCOLN      N/A       46  37  71 S4G9       N/A
* LOOKOUT PASS N/A       42  41  96 SW1        N/A
* POLSON       N/A       44  44 100 SE1        N/A
* RONAN APT    MOCLDY    48  43  83 N/A        N/A
* SEELEY LAKE  N/A       45  40  83 SE1G8      N/A
* THOMP F APT  MOCLDY    44  23  43 W1G7       N/A
* YAAK HILL    N/A       45  43  93 N/A        N/A
$$

MTZ008-052>055-300200-
SOUTHWEST MONTANA
CITY           SKY/WX    TMP DP  RH WIND       PRES   REMARKS
BOZEMAN        CLOUDY    52  28  40 W12       30.19R
DILLON         PTCLDY    46  27  48 E7        30.19S
W YELLOWSTONE  CLOUDY    36  27  70 CALM      30.26R
* ENNIS APT    MOCLDY    41  25  53 NE8        N/A
* THREE FORKS  CLOUDY    55  30  39 N/A        N/A
* BOULDER HILL N/A       43  22  43 SW1        N/A
* MONIDA PASS  N/A       39  23  53 SE10       N/A   WCI  32
* RAYNOLDS PAS N/A       45  26  47 SE6G11     N/A
* WHITEHALL    N/A       53  25  34 NW7G16     N/A
* WISE RIVER   N/A       43  28  56 NW7G15     N/A
$$

MTZ009>010-012-014-046-048-049-054-300200-
EAST SLOPES AND CENTRAL MONTANA
CITY           SKY/WX    TMP DP  RH WIND       PRES   REMARKS
CUT BANK       PTCLDY    46  36  68 W18       30.09R
GREAT FALLS    PTCLDY    50  34  54 SW16      30.12R
HELENA         MOCLDY    52  37  57 CALM      30.18R
MALMSTROM AFB  PTCLDY    48  36  63 SW13      30.14R
* CONRAD       MOCLDY    48  36  63 W6         N/A
* DEARBORN     N/A       52  34  50 NW1        N/A
* EAST GLACIER N/A       43  34  71 NW17       N/A
* MONARCH      N/A       45  24  44 W15        N/A
* ROGERS PASS  N/A       43  34  71 E7G14      N/A
* SAINT MARY   N/A       45  35  68 S8G20      N/A
* SWEET GRASS  N/A       48  33  56 W12G17     N/A
* WHITE SULPH  N/A       46  31  56 N8G16      N/A
$$

MTZ011-013-016-021-035-040-045-047-050-051-300200-
NORTH CENTRAL MONTANA
CITY           SKY/WX    TMP DP  RH WIND       PRES   REMARKS
HAVRE          PTCLDY    45  32  60 VRB3      30.05R
LEWISTOWN      PTCLDY    50  30  46 W9        30.12R
* N BAR RANCH  PTCLDY    50  30  46 NW15      30.12R
* FORT BENTON  PTCLDY    55  34  45 W14G20    30.10R
* MALTA APT    CLEAR     48  32  54 N/A        N/A
* CHESTER      N/A       52  34  50 W10G16     N/A
* DENTON       N/A       51  29  43 W12        N/A
* GEYSER       N/A       45  28  51 SW9        N/A
* JUDITH GAP   N/A       47  26  44 NW12       N/A
* LOMA         N/A       56  34  44 W12G18     N/A
$$

MTZ017>020-022>027-061-062-300200-
NORTHEAST MONTANA
CITY           SKY/WX    TMP DP  RH WIND       PRES   REMARKS
GLASGOW        MOCLDY    52  34  50 NW14      30.00R
GLENDIVE       PTCLDY    46  34  63 W12       30.00R
JORDAN         PTCLDY    46  36  68 NW9       30.03R
SIDNEY         PTCLDY    45  36  71 W8        29.97R
WOLF POINT     PTCLDY    45  34  65 N6        29.97R
* BEAVER HILL  N/A       47  36  66 W12        N/A
* CIRCLE       N/A       51  37  59 N/A        N/A
* LINDSAY DVD  N/A       49  34  56 W12        N/A
* NAVAJO       N/A       42  35  76 NW12       N/A
* PLENTYWOOD A N/A       43  36  76 NW7        N/A
* POPLAR APT   N/A       46  36  68 N/A        N/A
* SCOBEY APT   PTCLDY    39  28  65 N/A        N/A
$$

MTZ028>042-056>058-300200-
SOUTHCENTRAL AND SOUTHEAST MONTANA
CITY           SKY/WX    TMP DP  RH WIND       PRES   REMARKS
BAKER          FAIR      45  36  71 W10       30.01R
BILLINGS       PTCLDY    54  27  35 NW13      30.11R
LIVINGSTON     MOCLDY    48  27  44 NW6       30.17R
MILES CITY     PTCLDY    52  32  47 NW7       30.03R
* FORSYTH APT  PTCLDY    55  30  39 W9         N/A
* LAUREL APT   PTCLDY    52  25  35 N/A        N/A
* ROUNDUP APT  CLEAR     52  27  38 N/A        N/A
* ALZADA       N/A       46  33  61 NW3        N/A
* HYSHAM       N/A       53  27  37 W3         N/A
* LAME DEER    N/A       50  29  44 NW6G11     N/A
* REED POINT   N/A       55  26  33 W15        N/A
* ROSCOE HILL  N/A       47  17  30 W3G9       N/A
$$

REGIONAL REPORTS...DAKOTAS
CITY           SKY/WX    TMP DP  RH WIND       PRES   REMARKS
WILLISTON      PTCLDY    39  34  82 NW6       29.93R WCI  35
DICKINSON      PTCLDY    45  39  80 W10       29.93R
BEACH          N/A       43  37  79 W10       29.99R
CROSBY         CLEAR     36  36 100 NW7       29.93R WCI  30
TIOGA          CLEAR     34  34 100 W8        29.93R WCI  27
BISMARCK       LGT RAIN  46  45  96 CALM      29.94R
GRAND FORKS    CLOUDY    39  28  65 SE7       30.01R WCI  34
FARGO          MOCLDY    41  28  60 SE9       30.01F
BUFFALO SD     CLEAR     45  34  65 NW10      29.95R
RAPID CITY     CLEAR     48  34  59 N10       30.04R
$$

REGIONAL REPORTS...WYOMING/IDAHO/WASHINGTON
CITY           SKY/WX    TMP DP  RH WIND       PRES   REMARKS
GILLETTE       MOCLDY    50  25  38 NW10      30.10R
SHERIDAN       CLOUDY    54  25  33 NW13      30.12R
CODY           MOCLDY    48  25  41 NE7       30.18R
YELLOWSTONE LA PTCLDY    30  27  89 CALM      30.31R
SALMON         PTCLDY    45  34  65 SE5       30.19R
MULLAN PASS    FOG       37  36  96 SW6       30.21S WCI  32
SAND POINT     CLOUDY    45  45 100 N3        30.20R
SPOKANE        MOCLDY    48  46  93 NE7       30.17S
$$

REGIONAL REPORTS...ALBERTA
CITY           SKY/WX    TMP DP  RH WIND       PRES   REMARKS
CALGARY        FAIR      43  32  65 CALM      30.05R
LETHBRIDGE     FAIR      50  36  59 W20       30.05R
MEDICINE HAT   FAIR      43  34  71 NE6       30.06R
EDMONTON       MOCLDY    36  30  79 E7        30.09R WCI  30
WATERTON GATE  N/A       46  34  63 W18G25     N/A
CARDSTON       N/A       48  34  59 W14G20     N/A
MILK RIVER     N/A       45  34  65 W9         N/A
$$

REGIONAL REPORTS...SASKATCHEWAN
CITY           SKY/WX    TMP DP  RH WIND       PRES   REMARKS
SWIFT CURRENT  CLOUDY    32  30  92 N10       30.06R WCI  24
REGINA         CLOUDY    39  34  82 N9        30.00R WCI  33
VAL MARIE      N/A       37  32  82 N10        N/A   WCI  30
ASSINIBOIA     N/A       36  32  85 N12        N/A   WCI  28

$$




USA.gov is the U.S. government's official web portal to all federal, state and local government web resources and services.